Temp
65 65 65 65 65 65 65 65 65 64 65 65 65 65 65 64 64 60 56 64 64 70 68 60 60 61 59 55 56 52 42 37 42 45 46 46 46 44 46 42 41 42 39 41 44
65 65 65 64 64 64 64 65 64 64 64 64 64 65 64 64 56 54 67 70 70 70 59 57 56 58 52 53 53 49 39 43 48 47 45 48 47 45 43 40 41 39 40 43 42
65 65 64 64 64 64 64 64 64 64 64 64 64 64 63 61 53 56 69 70 70 68 59 58 58 56 49 50 50 47 43 47 50 51 51 48 45 46 43 39 43 41 37 40 40
65 64 63 63 63 63 63 64 64 64 64 64 63 63 63 56 47 56 69 70 70 63 59 56 54 50 48 47 52 44 50 51 50 50 49 46 46 43 43 45 46 45 41 40 38
64 63 63 62 62 62 62 62 63 64 64 63 63 63 57 50 52 61 68 66 62 59 56 55 52 50 46 47 48 45 47 49 48 48 47 47 45 44 44 45 42 41 40 39 38
63 62 62 62 62 61 61 61 63 63 63 62 62 62 52 44 59 61 59 59 59 57 54 54 52 53 49 48 47 46 47 47 47 46 46 45 41 44 45 42 39 39 37 38 39
62 61 60 60 61 61 61 61 62 62 62 62 62 59 50 51 60 58 59 56 57 55 53 54 54 50 48 46 49 46 43 44 44 44 43 44 38 39 41 40 37 37 38 38 38
61 60 60 59 60 60 60 60 61 61 62 62 62 54 47 58 56 58 57 56 57 57 55 54 54 50 47 47 46 41 38 34 41 41 42 43 35 42 38 38 37 37 38 38 38
60 59 59 59 59 59 59 60 61 62 63 62 53 50 46 60 54 55 54 53 53 54 54 61 52 46 45 39 35 36 32 32 38 42 40 38 33 38 36 37 36 35 37 38 38
58 58 58 58 58 58 58 60 60 60 60 61 59 45 50 49 52 53 52 53 51 51 50 48 42 37 35 35 30 31 30 32 34 38 37 33 33 40 36 36 37 37 37 37 36
58 57 57 57 57 58 56 52 50 48 50 50 49 49 51 52 54 50 52 50 49 45 38 41 35 31 38 37 36 34 32 32 37 38 34 34 36 41 39 35 35 37 38 36 36
57 57 57 57 57 57 53 48 46 48 37 49 48 48 52 51 47 48 51 44 42 37 39 35 31 40 40 39 37 34 31 32 35 37 34 33 33 38 41 36 39 41 40 38 35
57 56 57 57 56 53 48 48 52 50 37 43 48 47 47 49 44 43 46 43 40 36 36 33 37 41 41 35 34 32 30 30 34 33 31 29 31 32 38 42 45 43 41 38 35
56 56 56 56 51 48 46 52 52 50 32 40 43 45 48 46 41 47 47 42 39 37 36 34 38 38 35 35 35 29 34 33 32 29 23 26 25 31 37 40 36 31 35 34 34
56 56 56 56 49 45 50 51 50 45 22 44 43 50 46 41 40 41 45 42 37 37 34 35 33 31 32 34 35 31 33 31 29 25 22 24 23 28 31 36 25 24 24 30 32
55 55 55 50 46 48 52 51 46 34 21 39 43 42 42 41 41 41 41 42 40 35 34 33 34 34 34 32 33 33 30 29 25 24 14 26 27 26 26 25 22 20 24 26 29
55 55 52 52 44 50 52 44 31 24 42 38 39 43 41 40 40 38 37 34 34 30 26 31 31 31 33 29 30 29 26 24 20 11 20 23 19 25 25 18 17 18 20 19 25
54 54 50 52 49 51 47 39 26 35 35 42 41 40 36 38 37 37 34 31 32 28 26 25 23 29 31 29 27 27 27 22 18 14 16 19 13 23 16 15 15 19 16 24 22
54 43 44 48 49 49 39 26 30 32 39 37 39 32 34 36 36 34 30 30 28 27 23 22 25 30 32 33 32 25 22 26 19 20 19 20 24 28 27 22 20 22 25 21 24
43 40 42 47 47 44 34 32 33 40 40 38 31 33 29 32 31 32 31 31 29 33 35 29 22 27 31 32 31 29 30 22 21 15 15 21 17 20 21 26 26 22 20 22 24
37 33 45 47 45 38 29 30 36 42 41 36 32 32 31 29 32 32 33 34 33 33 34 31 27 24 27 26 27 25 22 23 21 20 16 12 13 17 23 25 25 24 23 21 20
34 31 45 46 33 28 28 32 40 36 39 36 34 31 32 31 28 28 29 35 38 34 25 29 26 18 23 23 27 26 23 24 20 18 21 20 18 9 19 23 24 22 26 24 24
31 31 44 44 29 28 34 34 37 33 35 35 33 34 34 31 26 29 30 35 35 29 26 28 22 16 18 19 20 20 24 25 25 23 17 17 16 16 16 22 26 24 25 25 25
31 26 34 36 36 31 28 29 30 36 32 33 32 35 32 28 30 28 28 32 33 32 37 34 26 22 18 23 27 21 23 22 23 17 17 20 23 27 22 28 28 26 25 23 24
30 27 32 24 28 28 28 29 28 27 30 32 29 31 28 23 22 22 28 27 30 33 30 30 22 23 25 28 26 26 26 24 21 21 19 23 20 27 25 23 25 25 25 24 23
30 29 32 28 28 25 27 25 27 29 28 26 24 29 26 24 25 23 22 18 19 20 26 26 18 23 20 25 25 21 24 24 25 24 21 23 21 25 23 23 23 21 24 24 24
38 38 34 29 24 24 23 26 28 29 30 31 28 25 24 27 30 30 33 31 31 28 26 24 20 15 17 19 18 12 18 23 22 23 23 16 20 20 20 22 18 19 23 24 24
MSLP
1019.16 1018.68 1018.19 1017.74 1017.26 1016.85 1016.51 1016.07 1015.66 1015.30 1014.93 1014.61 1014.33 1014.01 1013.68 1013.38 1013.00 1012.61 1012.28 1011.36 1011.48 1011.54 1011.69 1011.78 1011.72 1011.64 1011.97 1012.24 1012.40 1012.94 1013.74 1013.46 1012.54 1012.18 1011.58 1011.99 1012.63 1013.38 1013.87 1014.65 1015.26 1015.68 1016.21 1016.62 1017.79
1019.15 1018.61 1018.09 1017.62 1017.22 1016.76 1016.26 1015.78 1015.44 1015.03 1014.64 1014.33 1014.04 1013.75 1013.54 1013.32 1013.10 1012.16 1011.02 1011.08 1011.18 1011.42 1011.76 1011.80 1011.81 1011.70 1012.00 1012.07 1012.25 1012.69 1013.16 1012.17 1011.36 1011.17 1011.39 1011.97 1012.56 1013.36 1014.24 1014.85 1015.54 1016.20 1016.68 1017.22 1018.09
1019.23 1018.66 1018.13 1017.55 1017.08 1016.61 1016.13 1015.57 1015.08 1014.57 1014.22 1014.04 1013.82 1013.64 1013.48 1013.36 1013.11 1011.18 1010.86 1010.95 1011.00 1011.18 1011.67 1011.76 1011.69 1011.83 1012.10 1012.05 1012.04 1012.19 1011.92 1011.34 1010.94 1011.01 1011.26 1011.93 1012.64 1013.19 1013.89 1014.54 1014.33 1014.91 1016.51 1017.53 1018.35
1019.28 1018.69 1018.19 1017.65 1017.10 1016.55 1015.96 1015.36 1014.81 1014.32 1013.83 1013.53 1013.51 1013.54 1013.45 1013.49 1012.80 1011.01 1010.90 1010.84 1010.91 1011.24 1011.54 1011.71 1011.85 1011.87 1011.98 1011.93 1011.57 1011.94 1011.16 1011.05 1010.95 1011.05 1011.53 1011.98 1012.47 1012.87 1013.25 1012.61 1012.99 1013.82 1015.33 1016.94 1017.80
1019.41 1018.78 1018.22 1017.66 1017.00 1016.37 1015.72 1015.01 1014.33 1013.77 1013.40 1013.24 1013.22 1013.38 1013.41 1013.35 1011.79 1010.99 1010.90 1010.95 1011.04 1011.37 1011.56 1011.45 1011.51 1011.66 1011.81 1011.56 1011.38 1011.38 1010.95 1010.96 1011.02 1011.21 1011.52 1011.86 1012.17 1012.63 1012.21 1012.42 1013.08 1014.02 1015.35 1016.34 1017.22
1019.50 1018.89 1018.27 1017.58 1016.91 1016.14 1015.36 1014.53 1013.93 1013.30 1012.78 1012.70 1012.94 1013.07 1013.40 1013.25 1011.21 1011.02 1010.99 1011.02 1011.07 1011.11 1011.25 1011.44 1011.30 1011.25 1011.35 1011.30 1011.47 1011.21 1011.23 1011.20 1011.32 1011.48 1011.77 1012.20 1012.49 1013.01 1011.57 1012.19 1013.54 1014.35 1015.23 1015.92 1016.52
1019.70 1019.00 1018.34 1017.54 1016.74 1015.86 1014.90 1014.02 1013.25 1012.70 1012.31 1012.24 1012.47 1012.89 1013.03 1011.56 1010.99 1011.08 1011.11 1011.09 1011.11 1011.14 1011.18 1011.10 1011.10 1011.38 1011.52 1011.42 1011.10 1011.19 1011.59 1011.47 1011.25 1011.47 1011.96 1012.34 1012.64 1012.46 1011.62 1012.59 1013.54 1014.31 1014.90 1015.64 1016.21
1019.77 1019.06 1018.29 1017.41 1016.50 1015.66 1014.64 1013.47 1012.78 1012.14 1011.92 1011.95 1012.14 1012.48 1011.97 1010.90 1010.97 1011.10 1011.14 1011.12 1011.12 1011.10 1011.19 1011.19 1011.23 1011.48 1011.60 1011.58 1011.66 1011.94 1012.19 1012.18 1011.35 1011.76 1012.06 1012.63 1011.77 1011.35 1012.00 1012.79 1013.69 1014.38 1014.99 1015.37 1015.70
1020.06 1019.32 1018.45 1017.49 1016.49 1015.55 1014.25 1012.93 1012.19 1011.83 1012.02 1012.09 1012.48 1012.37 1011.46 1010.89 1010.97 1010.92 1011.01 1011.06 1011.11 1011.15 1011.10 1011.21 1011.36 1011.85 1012.03 1012.14 1012.73 1012.63 1012.38 1012.37 1011.98 1011.79 1012.23 1012.79 1012.21 1011.82 1012.30 1012.96 1013.50 1014.02 1014.26 1014.65 1015.28
1020.08 1019.26 1018.41 1017.27 1016.41 1015.45 1013.96 1012.22 1011.77 1011.87 1012.10 1012.23 1012.27 1012.87 1011.51 1010.98 1011.03 1011.13 1011.17 1011.11 1011.11 1011.20 1011.37 1011.57 1012.02 1012.30 1012.73 1012.85 1012.65 1012.66 1012.85 1012.50 1012.29 1012.02 1012.46 1012.76 1012.25 1011.77 1012.22 1012.84 1012.66 1012.78 1013.07 1013.45 1014.08
1020.17 1019.29 1018.39 1017.27 1016.19 1015.21 1014.03 1012.69 1012.84 1012.62 1012.43 1011.99 1011.68 1011.40 1011.14 1011.14 1011.08 1011.41 1011.36 1011.41 1011.48 1011.66 1011.97 1012.07 1012.55 1012.44 1011.57 1011.84 1012.00 1012.20 1012.52 1012.51 1011.86 1011.78 1012.45 1012.25 1011.69 1011.11 1011.13 1011.94 1011.89 1011.49 1011.52 1012.07 1012.86
1019.98 1019.06 1018.21 1017.02 1015.74 1014.95 1014.32 1014.94 1015.53 1015.66 1013.70 1011.92 1011.52 1011.47 1011.20 1011.04 1011.21 1011.40 1011.57 1011.89 1011.91 1012.10 1012.47 1013.13 1012.48 1011.30 1011.66 1012.02 1012.39 1012.58 1012.73 1012.42 1011.82 1011.91 1012.48 1012.00 1010.88 1010.67 1010.10 1009.86 1009.41 1009.30 1009.80 1011.14 1013.15
1020.01 1019.19 1018.12 1016.86 1015.54 1015.20 1015.54 1015.65 1015.68 1015.72 1015.14 1012.22 1011.67 1011.52 1011.56 1011.56 1011.48 1011.71 1011.95 1011.88 1011.98 1012.22 1012.38 1012.52 1011.57 1011.46 1011.89 1012.33 1012.73 1012.58 1012.75 1012.31 1012.37 1012.45 1012.49 1012.37 1010.08 1009.34 1008.13 1008.41 1008.21 1008.43 1009.90 1011.07 1012.30
1019.70 1018.98 1018.32 1017.09 1015.88 1016.03 1015.67 1015.61 1015.54 1015.61 1015.29 1012.54 1011.91 1011.93 1011.75 1011.74 1012.13 1012.27 1012.37 1012.58 1012.29 1012.28 1012.46 1012.48 1011.66 1011.72 1012.14 1012.44 1012.78 1012.80 1012.29 1012.52 1012.84 1013.35 1013.41 1012.95 1010.53 1009.38 1008.73 1008.57 1009.10 1009.85 1010.37 1010.95 1012.30
1019.63 1018.66 1018.07 1017.60 1017.18 1016.53 1015.88 1015.39 1015.26 1015.72 1014.87 1012.35 1011.99 1011.91 1011.76 1012.31 1012.63 1012.65 1012.76 1012.57 1012.57 1012.66 1013.02 1012.06 1012.17 1012.50 1012.78 1012.58 1012.75 1012.84 1012.92 1013.29 1013.72 1014.03 1014.26 1013.47 1013.51 1009.27 1009.94 1010.23 1010.94 1011.64 1011.66 1011.65 1012.32
1019.54 1018.58 1018.09 1017.28 1017.18 1016.31 1015.70 1015.50 1015.63 1015.61 1013.58 1012.28 1011.85 1011.91 1011.87 1011.81 1012.14 1012.56 1012.70 1012.75 1012.98 1013.07 1013.02 1012.87 1012.78 1012.80 1012.59 1013.09 1013.26 1013.46 1013.65 1014.08 1014.67 1015.08 1014.62 1012.87 1013.46 1010.62 1011.38 1012.08 1013.02 1013.59 1013.53 1013.35 1013.36
1019.38 1018.18 1017.87 1017.46 1016.82 1016.02 1015.61 1015.76 1016.05 1015.02 1012.91 1012.92 1012.51 1012.31 1012.20 1012.14 1012.22 1012.54 1012.86 1013.17 1013.60 1013.85 1013.76 1013.39 1013.32 1013.54 1013.62 1013.82 1013.99 1013.90 1014.17 1014.91 1015.35 1015.86 1014.00 1013.42 1014.11 1012.10 1012.71 1013.60 1014.63 1015.04 1014.94 1014.71 1014.62
1019.00 1017.90 1017.37 1017.22 1016.73 1016.08 1015.85 1015.92 1016.18 1014.87 1013.97 1013.52 1013.29 1012.73 1012.80 1012.90 1012.80 1013.06 1013.35 1013.85 1014.25 1014.66 1014.93 1014.64 1014.13 1014.54 1014.78 1014.84 1014.88 1014.77 1014.48 1014.85 1014.90 1015.18 1014.72 1014.62 1014.19 1013.02 1013.76 1014.56 1015.20 1015.62 1015.69 1015.64 1015.86
1018.88 1018.28 1017.81 1016.89 1016.58 1016.20 1016.43 1016.66 1015.89 1015.53 1015.29 1014.68 1013.86 1013.42 1013.33 1013.33 1013.70 1013.66 1013.97 1014.50 1015.48 1015.77 1016.20 1016.10 1015.44 1015.33 1015.27 1015.36 1015.83 1015.69 1015.49 1015.44 1015.28 1014.99 1015.33 1014.27 1013.53 1013.37 1013.75 1014.66 1015.38 1015.80 1016.07 1016.41 1016.42
1019.70 1019.07 1018.25 1017.26 1016.65 1016.69 1017.38 1017.32 1016.66 1016.27 1015.93 1015.47 1015.37 1014.96 1014.90 1014.77 1014.92 1014.58 1014.37 1015.06 1015.82 1016.27 1016.32 1016.94 1016.51 1015.73 1015.55 1015.81 1016.21 1016.09 1016.50 1016.18 1016.34 1015.90 1014.88 1013.81 1013.99 1013.83 1014.41 1014.69 1014.95 1015.34 1015.53 1015.91 1016.09
1020.44 1019.62 1017.76 1017.10 1016.75 1017.27 1018.18 1018.10 1017.56 1017.10 1016.96 1016.70 1016.36 1016.24 1016.03 1015.88 1015.86 1015.46 1015.10 1015.57 1015.94 1016.44 1016.62 1016.73 1017.08 1016.38 1016.21 1016.22 1016.14 1016.50 1016.74 1016.96 1016.71 1015.97 1015.22 1014.73 1013.68 1013.55 1014.34 1014.76 1015.13 1015.25 1015.49 1015.78 1016.27
1021.31 1020.40 1018.14 1017.46 1018.04 1018.95 1019.13 1019.12 1018.62 1018.21 1017.93 1017.84 1017.70 1017.42 1016.88 1017.10 1016.72 1016.59 1016.19 1015.97 1016.12 1016.66 1016.93 1016.74 1016.93 1016.71 1016.24 1016.43 1016.42 1016.33 1016.39 1016.63 1016.40 1015.77 1015.38 1015.41 1014.23 1013.62 1014.29 1014.86 1015.20 1015.21 1015.15 1015.26 1015.47
1022.25 1021.33 1019.10 1018.46 1019.90 1020.62 1020.49 1020.03 1019.40 1019.29 1018.86 1018.38 1018.18 1018.08 1018.11 1018.06 1017.86 1017.19 1016.78 1016.50 1016.94 1017.33 1017.28 1016.61 1016.67 1016.69 1016.33 1016.91 1016.87 1016.60 1016.39 1016.02 1015.66 1015.41 1015.03 1015.21 1014.33 1013.72 1014.52 1014.54 1014.59 1014.73 1014.72 1014.97 1015.44
1022.40 1021.99 1021.00 1020.91 1021.48 1021.84 1021.69 1020.67 1020.02 1019.33 1019.16 1019.00 1018.57 1018.51 1018.63 1018.42 1018.22 1017.67 1017.67 1017.64 1017.41 1017.46 1017.04 1017.07 1015.78 1016.14 1016.02 1015.44 1015.32 1015.92 1015.79 1015.66 1015.80 1015.52 1014.74 1014.38 1013.68 1013.89 1014.37 1014.50 1014.39 1014.41 1014.52 1014.96 1015.46
1023.20 1022.92 1022.71 1022.34 1022.10 1022.52 1022.33 1021.70 1020.86 1020.06 1019.70 1019.69 1019.39 1019.36 1019.44 1019.18 1018.84 1018.35 1018.15 1017.91 1017.38 1017.06 1017.12 1017.00 1016.42 1016.07 1015.38 1015.10 1014.89 1014.75 1014.85 1014.91 1014.88 1014.11 1014.66 1013.50 1013.81 1013.16 1013.97 1014.15 1014.21 1014.30 1014.46 1014.97 1015.44
1023.40 1023.21 1023.23 1022.96 1022.71 1022.80 1022.39 1021.89 1021.33 1020.97 1020.72 1020.07 1020.01 1019.71 1019.86 1019.71 1019.42 1018.64 1018.75 1018.40 1018.26 1017.69 1017.46 1017.08 1016.32 1015.74 1015.12 1014.68 1014.46 1014.45 1014.04 1013.63 1013.71 1013.81 1014.08 1013.68 1013.66 1013.68 1013.82 1014.15 1014.55 1014.83 1014.97 1015.15 1015.53
1023.46 1023.35 1023.35 1022.78 1022.78 1022.90 1022.53 1021.80 1021.45 1021.52 1020.72 1020.19 1020.31 1020.17 1019.53 1019.04 1018.85 1018.52 1018.35 1018.08 1017.77 1017.56 1017.36 1017.17 1016.73 1015.95 1014.86 1014.54 1014.49 1014.17 1012.78 1012.78 1012.84 1013.06 1013.34 1013.68 1013.76 1014.14 1014.50 1015.18 1015.80 1015.90 1015.73 1015.60 1015.74
Wind_Speed
20 21 22 22 21 20 18 16 15 15 15 14 13 12 11 11 11 3 6 5 4 3 4 4 2 4 4 3 4 4 1 4 6 6 4 4 5 1 1 6 2 3 2 1 19
22 22 22 22 22 21 20 18 17 16 15 15 14 13 12 11 3 7 4 4 2 2 1 2 3 5 3 5 4 5 5 11 7 3 3 5 4 8 3 3 4 2 3 12 18
22 23 23 23 23 23 22 21 18 17 17 16 14 13 11 8 5 5 5 2 2 2 2 1 1 1 2 3 5 5 7 5 4 4 4 4 3 6 6 6 9 11 10 17 16
22 23 24 24 23 23 23 23 20 19 16 14 12 11 10 1 6 2 2 1 2 6 4 2 2 4 5 7 6 4 8 5 3 3 4 5 6 6 9 5 3 8 19 19 20
23 24 24 24 24 24 25 23 21 18 16 13 9 6 3 2 10 3 0 1 3 5 4 5 6 5 5 4 3 5 4 3 3 5 5 5 8 9 12 7 7 13 15 20 17
24 24 24 25 25 25 26 26 23 20 15 9 6 2 2 4 2 3 1 2 2 4 3 5 5 4 4 4 6 2 2 4 4 5 4 5 2 6 7 8 9 14 15 16 18
26 26 25 27 27 27 27 28 24 22 16 5 5 3 2 12 3 2 3 2 1 2 2 2 2 3 0 4 2 1 5 5 7 5 6 4 5 13 5 8 11 12 13 14 15
27 28 28 28 28 28 29 28 23 21 4 5 9 3 8 1 2 1 3 1 3 0 1 1 2 3 2 2 4 3 1 3 2 6 3 6 7 7 5 10 9 10 10 13 15
27 27 28 29 28 28 30 30 23 5 3 8 3 3 9 2 2 3 1 3 1 1 0 1 3 2 1 3 4 2 6 6 9 8 5 6 5 1 3 6 7 9 12 14 14
28 29 30 30 30 29 32 29 12 3 3 1 1 1 2 3 2 2 1 2 2 3 2 3 4 2 1 4 9 7 6 6 7 5 5 5 15 12 6 8 13 13 14 16 17
28 27 28 28 28 30 17 7 8 4 4 7 3 5 2 2 2 2 2 2 2 1 5 2 3 10 17 9 1 2 4 6 6 4 4 9 13 16 8 9 13 15 17 18 17
28 27 28 29 30 27 5 5 3 3 12 7 7 5 3 2 2 2 2 4 3 4 4 4 10 10 4 6 8 6 6 12 6 2 6 7 15 13 14 11 19 22 21 14 11
28 27 27 28 31 5 4 3 1 1 5 5 3 1 2 1 2 2 2 3 4 5 7 7 4 3 5 3 5 5 7 6 9 4 4 6 12 8 8 15 19 16 7 9 17
30 28 27 30 5 5 2 5 1 3 4 5 2 4 3 2 2 3 3 1 2 7 5 7 3 3 3 5 8 7 5 2 1 3 6 1 12 4 6 10 4 8 4 10 15
32 31 27 22 5 5 3 4 3 2 6 5 3 3 1 0 1 2 2 2 3 2 3 6 2 2 5 7 7 5 3 2 2 2 4 3 1 3 3 9 4 9 9 7 14
32 33 30 3 2 6 7 4 2 5 8 5 2 3 4 2 1 0 1 2 1 2 2 7 1 4 5 3 1 4 4 5 4 2 4 10 8 7 5 3 4 5 8 1 11
32 33 23 5 4 4 5 2 6 4 5 7 4 7 3 4 1 1 2 3 2 7 2 2 4 4 3 1 3 2 4 3 3 1 9 1 3 10 5 4 2 6 8 4 5
32 31 6 3 6 5 3 4 1 2 4 4 6 6 3 7 3 2 2 4 7 2 3 4 5 6 5 3 3 3 4 6 6 3 5 3 7 8 5 5 4 5 3 2 4
28 5 5 4 6 3 4 3 5 2 5 8 8 5 2 1 5 6 2 0 3 5 0 6 4 1 3 2 2 0 3 1 1 4 3 3 7 5 2 5 6 7 5 3 4
9 4 4 8 6 4 5 3 3 4 6 4 3 3 5 7 8 4 3 2 4 2 5 2 7 1 3 1 2 2 3 1 2 4 5 2 4 5 4 5 2 2 3 5 3
3 5 4 10 2 5 2 4 4 5 8 6 4 6 6 6 4 5 4 1 3 4 4 5 5 1 1 5 6 3 2 2 2 3 3 3 8 5 4 2 1 4 3 3 2
3 4 5 6 5 1 3 6 8 6 7 5 3 3 3 9 4 4 4 2 6 2 4 5 4 4 8 2 3 2 5 6 4 4 3 3 8 0 4 3 4 7 4 6 7
3 3 5 4 4 4 5 5 2 5 6 4 4 1 3 4 6 4 4 5 1 2 2 5 4 3 4 1 4 3 5 6 3 2 6 4 7 1 4 4 5 5 6 4 5
3 5 5 5 1 2 4 3 4 5 4 4 4 3 2 4 6 5 5 2 1 6 13 9 4 8 13 10 3 4 6 7 7 3 3 9 16 8 2 6 7 7 7 5 5
3 1 1 4 2 4 2 4 4 4 2 3 5 1 4 4 4 4 8 5 5 5 3 4 4 4 14 15 11 9 13 8 13 11 7 17 10 15 7 6 6 5 2 5 6
1 1 2 3 2 2 4 3 8 1 2 7 4 8 9 10 11 15 7 3 7 5 2 2 5 4 5 11 12 13 13 16 15 14 11 16 18 4 3 6 8 8 4 4 3
1 0 1 4 2 2 5 5 3 7 8 5 7 8 12 12 8 9 11 12 15 14 10 4 3 3 9 2 3 6 10 12 1 3 6 6 6 2 5 4 4 7 7 4 2
Wind_Direction
2 360 358 356 354 353 346 332 321 313 306 303 302 306 308 307 314 284 239 194 169 301 329 281 220 168 140 201 157 138 78 237 242 180 243 151 177 39 56 121 228 175 152 132 142
358 356 354 353 350 348 345 338 324 314 307 301 300 304 315 323 291 236 209 173 224 248 290 242 179 152 173 195 196 156 178 218 210 197 223 191 178 164 166 171 238 242 44 133 148
356 354 351 348 345 343 341 337 324 315 309 304 299 302 311 329 310 242 169 213 233 176 173 221 147 181 222 170 208 193 221 206 239 206 174 190 211 164 160 226 215 203 156 160 164
356 354 350 346 342 338 334 333 327 315 307 300 295 300 312 262 286 230 211 252 235 135 142 174 164 167 200 209 206 227 237 208 190 202 173 190 133 201 197 213 240 178 155 162 176
355 353 348 344 340 336 331 327 325 316 308 300 288 295 339 233 253 187 41 334 135 137 213 184 168 181 204 222 202 227 246 198 189 200 230 135 213 216 244 186 111 131 154 173 180
353 349 345 343 340 335 330 325 320 314 305 291 266 223 165 249 110 109 92 150 153 180 206 188 215 205 235 226 183 326 280 271 232 225 241 212 265 136 275 147 138 154 173 181 184
350 348 345 342 336 333 327 322 316 311 299 267 191 173 203 241 148 130 28 197 162 165 204 169 157 172 321 282 329 7 308 307 230 211 237 132 253 229 180 155 163 180 184 185 189
350 347 342 338 336 331 325 317 315 311 273 166 161 145 239 168 177 39 334 113 15 279 157 166 109 193 204 289 358 328 141 284 315 139 218 151 273 259 165 156 188 192 192 194 195
346 344 339 336 333 330 325 315 312 313 130 142 116 143 268 131 171 161 139 159 276 271 205 174 138 172 90 125 356 271 253 219 310 191 133 184 269 73 158 194 214 207 204 200 194
347 343 338 335 331 330 323 308 293 349 121 154 43 17 264 236 137 122 36 111 133 142 97 140 56 134 77 133 226 215 230 241 237 199 179 206 254 263 193 193 227 216 210 202 200
343 340 339 333 329 330 328 345 13 346 15 236 221 241 146 91 65 58 10 76 96 98 179 181 134 213 209 205 168 183 217 243 249 184 173 236 246 258 223 211 234 229 217 212 205
343 339 337 332 328 327 340 53 41 267 298 272 275 261 245 203 291 160 114 156 167 197 117 36 240 230 172 191 226 246 262 264 277 146 190 280 269 258 253 221 221 228 226 208 168
337 336 337 334 323 25 351 35 331 33 286 315 262 314 338 124 240 236 158 170 187 181 193 175 225 79 161 182 204 229 211 232 249 333 236 318 272 238 270 243 244 243 253 180 174
334 333 336 338 9 333 33 328 21 93 337 279 38 12 15 34 311 24 7 294 251 219 186 230 286 189 180 233 167 261 231 180 174 74 242 0 290 232 256 278 52 6 255 167 161
330 329 332 331 277 304 289 329 143 65 358 328 14 290 46 95 293 14 331 25 259 260 128 255 197 175 204 222 166 241 52 82 67 108 357 205 259 240 5 261 356 345 333 148 156
323 323 330 348 301 255 313 317 71 52 261 336 354 328 338 167 170 85 52 45 162 312 244 255 339 206 214 92 68 135 78 61 58 76 277 191 175 276 204 245 321 330 355 71 148
320 321 325 274 262 306 316 44 30 144 337 334 356 344 331 297 325 68 19 327 248 330 309 297 225 22 38 112 37 104 89 313 288 6 248 81 104 257 328 348 246 295 321 321 133
321 321 298 257 303 307 2 56 186 326 320 359 343 302 248 8 351 2 4 309 39 48 301 278 316 357 0 16 330 193 179 181 249 250 293 9 234 258 224 279 268 274 264 80 65
327 322 328 328 324 357 62 66 221 2 324 335 331 344 311 45 11 9 272 207 56 24 179 356 283 287 70 3 23 100 191 347 16 187 240 219 287 333 13 27 17 21 47 44 157
328 323 303 316 343 56 67 263 305 42 322 349 308 305 344 335 324 331 211 70 124 119 124 233 286 109 316 116 21 319 46 46 159 259 240 224 260 225 329 32 30 9 199 207 191
7 355 266 324 51 53 133 241 313 20 11 348 321 281 284 314 306 330 322 183 182 205 269 189 217 276 357 190 192 144 184 206 318 222 266 300 274 223 158 185 325 304 251 203 179
359 343 312 349 48 44 45 333 343 350 18 352 344 315 310 359 297 271 288 270 178 176 208 212 200 246 235 36 6 100 178 178 210 206 234 266 261 288 175 189 227 259 248 215 198
351 284 316 28 39 30 340 314 283 356 321 310 284 233 10 307 314 272 283 357 3 297 308 196 219 296 290 51 6 210 195 223 271 331 198 215 262 304 294 268 250 284 268 236 197
30 356 333 30 117 60 324 269 310 305 271 325 277 262 287 246 228 281 285 327 299 222 253 265 190 212 257 257 169 199 211 208 207 190 230 237 272 288 279 275 288 256 250 242 208
18 285 124 319 333 335 237 266 268 297 55 53 328 313 355 311 285 244 316 303 274 254 238 222 271 237 252 264 278 271 263 205 209 228 228 274 267 275 327 292 272 284 295 209 198
290 37 340 271 263 231 284 262 279 338 301 292 218 326 313 279 265 287 280 194 229 320 267 276 265 231 254 265 257 260 259 244 244 248 247 258 274 7 14 350 360 342 321 264 184
314 85 275 217 221 154 229 231 259 333 272 226 288 288 278 266 246 250 258 266 260 267 265 225 265 191 264 262 34 301 238 235 191 192 186 191 235 340 359 23 13 335 335 303 194